Weather History for Mount Ida, AR

Change the Weather History Date:

Sunday, June 15, 2014

  Actual Average (KHOT) Record (KHOT)
Temperature  
Mean Temperature 80 °F -  
Max Temperature 86 °F 90 °F 100 °F (1948)
Min Temperature 73 °F 66 °F 53 °F (1989)
Cooling Degree Days 14    
Growing Degree Days 30 (Base 50)    
Moisture  
Dew Point 69 °F    
Average Humidity 73    
Maximum Humidity 85    
Minimum Humidity 57    
Precipitation  
Precipitation 0.00 in - - ()
Sea Level Pressure  
Sea Level Pressure 29.91 in    
Wind  
Wind Speed 5 mph (SSE)    
Max Wind Speed 9 mph    
Max Gust Speed 16 mph    
Visibility 10 miles    
Events      
Averages and records for this station are not official NWS values.
T = Trace of Precipitation, MM = Missing Value Source: NWS Daily Summary

Daily Weather History Graph

Daily Weather History Graph

Search for Another Location

Airport:

Trip Planner

Search our weather history database for the weather conditions in past years. The results will help you decide how hot, cold, wet, or windy it might be!

Date:

Astronomy

Jun. 15, 2014 Rise Set
Actual Time 6:01 AM CDT 8:28 PM CDT
Civil Twilight 5:31 AM CDT 8:58 PM CDT
Nautical Twilight 4:55 AM CDT 9:34 PM CDT
Astronomical Twilight 4:15 AM CDT 10:14 PM CDT
Moon 10:46 PM CDT (6/15) 8:49 AM CDT (6/15)
Length of Visible Light 15h 26m
Length of Day
14h 27m
Waning Gibbous, 91% of the Moon is Illuminated
Jun 15
Waning Gibbous
Jun 19
Last Quarter
Jun 27
New
Jul 5
First Quarter
Jul 12
Full

Hourly Weather History & Observations

Time (CDT) Temp. Heat Index Dew Point Humidity Pressure Visibility Wind Dir Wind Speed Gust Speed Precip Events Conditions
12:53 AM 75.0 °F - 70.0 °F 84% 29.86 in 10.0 mi SE 3.5 mph - N/A   Clear
1:53 AM 73.9 °F - 69.1 °F 85% 29.84 in 10.0 mi North - - N/A   Clear
2:53 AM 75.0 °F - 69.1 °F 82% 29.83 in 10.0 mi Variable 4.6 mph - N/A   Partly Cloudy
3:53 AM 75.9 °F - 69.1 °F 79% 29.82 in 10.0 mi SSW 8.1 mph - N/A   Partly Cloudy
4:53 AM 75.0 °F - 68.0 °F 79% 29.83 in 6.0 mi North - - N/A   Haze
5:53 AM 73.9 °F - 68.0 °F 82% 29.86 in 10.0 mi Variable 4.6 mph - N/A   Partly Cloudy
6:53 AM 73.9 °F - 69.1 °F 85% 29.88 in 10.0 mi Variable 3.5 mph - N/A   Clear
7:53 AM 75.0 °F - 68.0 °F 79% 29.87 in 10.0 mi Variable 5.8 mph - N/A   Partly Cloudy
8:53 AM 77.0 °F - 69.1 °F 76% 29.93 in 10.0 mi North - - N/A   Scattered Clouds
9:53 AM 79.0 °F - 68.0 °F 69% 29.94 in 10.0 mi Variable 4.6 mph - N/A   Partly Cloudy
10:53 AM 80.1 °F 82.9 °F 69.1 °F 69% 29.94 in 10.0 mi Variable 6.9 mph - N/A   Partly Cloudy
11:53 AM 80.1 °F 83.2 °F 70.0 °F 71% 29.96 in 10.0 mi North - - N/A   Scattered Clouds
12:53 PM 82.9 °F 85.8 °F 68.0 °F 60% 29.97 in 10.0 mi Variable 4.6 mph - N/A   Mostly Cloudy
1:53 PM 82.9 °F 87.5 °F 71.1 °F 67% 29.98 in 10.0 mi ESE 4.6 mph - N/A   Overcast
2:53 PM 84.9 °F 89.4 °F 70.0 °F 61% 29.94 in 10.0 mi SE 9.2 mph - N/A   Clear
3:53 PM 84.9 °F 88.2 °F 68.0 °F 57% 29.91 in 10.0 mi SSE 8.1 mph 16.1 mph N/A   Clear
4:53 PM 86.0 °F 90.1 °F 69.1 °F 57% 29.90 in 10.0 mi SSW 8.1 mph - N/A   Partly Cloudy
5:53 PM 84.0 °F 87.8 °F 69.1 °F 61% 29.89 in 10.0 mi SE 6.9 mph - N/A   Scattered Clouds
6:53 PM 82.9 °F 87.0 °F 70.0 °F 65% 29.90 in 10.0 mi Calm Calm - N/A   Clear
7:53 PM 81.0 °F 84.9 °F 71.1 °F 72% 29.91 in 10.0 mi Calm Calm - N/A   Clear
8:53 PM 78.1 °F - 71.1 °F 79% 29.92 in 10.0 mi Calm Calm - N/A   Clear
9:53 PM 75.0 °F - 70.0 °F 84% 29.94 in 10.0 mi Calm Calm - N/A   Clear
10:53 PM 75.0 °F - 70.0 °F 84% 29.97 in 10.0 mi Calm Calm - N/A   Partly Cloudy
11:53 PM 78.1 °F - 69.1 °F 74% 29.98 in 10.0 mi SE 4.6 mph - N/A   Partly Cloudy